Latest Coastal Weather Observations for Red Rocks Point

IDW60701

Issued at 10:32 pm WST Saturday 31 January 2015 (issued every 10 minutes, with the page automatically refreshed every 10 minutes)

About coastal observations | Map of coastal stations | Coastal observations for WA | Marine services | Other Formats
Station Details ID: 011053 Name: RED ROCKS POINT Lat: -32.20 Lon: 127.53 Height: 3.1 m
Data from the previous 72 hours. | See also: Recent months for locations in Western Australia
Date/Time
WST
Temp

°C
Wind Pressure Rain
since 9am
mm
Weather Cloud Vis
km
Sea
Height
m
Swell
Dir
 
Speed
knots
Gust
knots
hPa Trend Height
m
Period
s
Dir
31/10:30pm 20.3 ESE 19 23 1019.0 - 0.0 - - - - - - -
31/10:00pm 20.2 ESE 20 24 1019.2 - 0.0 - - - - - - -
31/09:30pm 20.4 ESE 19 22 1019.5 - 0.0 - - - - - - -
31/09:00pm 20.2 ESE 19 22 1019.6 - 0.0 - - - - - - -
31/08:30pm 20.2 ESE 20 23 1019.3 - 0.0 - - - - - - -
31/08:00pm 20.3 ESE 18 21 1019.3 - 0.0 - - - - - - -
31/07:30pm 20.1 ESE 18 21 1019.3 - 0.0 - - - - - - -
31/07:00pm 20.3 ESE 18 21 1019.0 - 0.0 - - - - - - -
31/06:30pm 20.4 ESE 17 21 1018.9 - 0.0 - - - - - - -
31/06:00pm 20.6 SE 18 23 1018.5 - 0.0 - - - - - - -
31/05:30pm 20.6 SE 18 22 1018.1 - 0.0 - - - - - - -
31/05:00pm 21.0 SE 19 22 1017.8 - 0.0 - - - - - - -
31/04:30pm 21.1 SE 19 22 1017.4 - 0.0 - - - - - - -
31/04:00pm 21.2 SE 18 22 1017.3 - 0.0 - - - - - - -
31/03:30pm 21.6 SE 19 22 1017.3 - 0.0 - - - - - - -
31/03:00pm 21.6 SE 18 20 1017.4 - 0.0 - - - - - - -
31/02:30pm 21.9 SE 18 21 1017.5 - 0.0 - - - - - - -
31/02:00pm 22.4 SE 18 21 1017.6 - 0.0 - - - - - - -
31/01:30pm 22.2 SE 19 21 1017.7 - 0.0 - - - - - - -
31/01:00pm 22.8 SE 18 21 1017.7 - 0.0 - - - - - - -
31/12:30pm 23.1 SE 17 20 1017.7 - 0.0 - - - - - - -
31/12:00pm 22.6 SE 17 20 1017.9 - 0.0 - - - - - - -
31/11:30am 22.5 SE 18 20 1018.0 - 0.0 - - - - - - -
31/11:00am 22.9 SE 18 20 1018.1 - 0.0 - - - - - - -
31/10:30am 22.2 SE 16 20 1018.2 - 0.0 - - - - - - -
31/10:00am 22.6 SE 16 18 1018.3 - 0.0 - - - - - - -
31/09:30am 22.7 ESE 15 19 1018.4 - 0.0 - - - - - - -
31/09:00am 22.6 SE 15 17 1018.4 - 0.0 - - - - - - -
31/08:30am 21.4 ESE 15 18 1018.3 - 0.0 - - - - - - -
31/08:00am 22.3 ESE 15 17 1018.2 - 0.0 - - - - - - -
31/07:30am 21.0 ESE 15 18 1018.0 - 0.0 - - - - - - -
31/07:00am 20.6 ESE 16 18 1018.0 - 0.0 - - - - - - -
31/06:30am 20.4 ESE 15 17 1017.9 - 0.0 - - - - - - -
31/06:00am 20.5 E 15 17 1017.7 - 0.0 - - - - - - -
31/05:30am 20.1 SE 16 19 1017.3 - 0.0 - - - - - - -
31/05:00am 20.0 ESE 16 19 1016.9 - 0.0 - - - - - - -
31/04:30am 20.1 ESE 15 21 1016.4 - 0.0 - - - - - - -
31/04:00am 20.1 ESE 17 20 1015.9 - 0.0 - - - - - - -
31/03:30am 20.0 ESE 17 20 1015.6 - 0.0 - - - - - - -
31/03:00am 19.8 SE 18 23 1015.4 - 0.0 - - - - - - -
31/02:30am 19.9 SE 17 21 1015.5 - 0.0 - - - - - - -
31/02:00am 19.8 SE 20 23 1015.5 - 0.0 - - - - - - -
31/01:30am 19.9 SE 18 23 1015.5 - 0.0 - - - - - - -
31/01:00am 20.2 SE 18 23 1015.8 - 0.0 - - - - - - -
31/12:30am 20.2 SE 17 21 1015.8 - 0.0 - - - - - - -
31/12:00am 20.1 SE 17 19 1016.1 - 0.0 - - - - - - -
 
Date/Time
WST
Temp

°C
Wind Pressure Rain
since 9am
mm
Weather Cloud Vis
km
Sea
Height
m
Swell
Dir
 
Speed
knots
Gust
knots
hPa Trend Height
m
Period
s
Dir
30/11:30pm 20.2 SE 17 21 1016.3 - 0.0 - - - - - - -
30/11:00pm 20.3 SE 17 20 1016.4 - 0.0 - - - - - - -
30/10:30pm 20.1 ESE 17 20 1016.3 - 0.0 - - - - - - -
30/10:00pm 20.4 ESE 17 21 1016.2 - 0.0 - - - - - - -
30/09:30pm 20.4 ESE 16 20 1016.5 - 0.0 - - - - - - -
30/09:00pm 20.4 ESE 17 21 1016.3 - 0.0 - - - - - - -
30/08:30pm 20.5 ESE 18 22 1016.2 - 0.0 - - - - - - -
30/08:00pm 20.7 ESE 18 22 1016.1 - 0.0 - - - - - - -
30/07:30pm 20.6 ESE 17 21 1015.8 - 0.0 - - - - - - -
30/07:00pm 20.9 ESE 17 20 1015.6 - 0.0 - - - - - - -
30/06:30pm 21.0 SE 17 19 1015.5 - 0.0 - - - - - - -
30/06:00pm 21.1 SE 17 20 1015.4 - 0.0 - - - - - - -
30/05:30pm 21.3 SE 17 21 1015.1 - 0.0 - - - - - - -
30/05:00pm 21.6 SE 18 21 1014.7 - 0.0 - - - - - - -
30/04:30pm 22.2 SE 17 20 1014.7 - 0.0 - - - - - - -
30/04:00pm 22.4 SE 17 19 1014.8 - 0.0 - - - - - - -
30/03:30pm 22.9 SE 17 20 1014.7 - 0.0 - - - - - - -
30/03:00pm 23.4 SE 16 18 1014.9 - 0.0 - - - - - - -
30/02:30pm 22.8 SE 15 18 1015.0 - 0.0 - - - - - - -
30/02:00pm 22.5 SSE 15 17 1015.1 - 0.0 - - - - - - -
30/01:30pm 23.7 SSE 14 17 1015.2 - 0.0 - - - - - - -
30/01:00pm 23.7 SSE 15 18 1015.1 - 0.0 - - - - - - -
30/12:30pm 23.2 SSE 14 16 1015.4 - 0.0 - - - - - - -
30/12:00pm 23.4 SSE 12 15 1015.8 - 0.0 - - - - - - -
30/11:30am 23.5 SE 11 13 1016.0 - 0.0 - - - - - - -
30/11:00am 23.9 SE 11 14 1016.1 - 0.0 - - - - - - -
30/10:30am 22.9 SE 11 14 1016.3 - 0.0 - - - - - - -
30/10:00am 23.0 SE 10 12 1016.3 - 0.0 - - - - - - -
30/09:30am 23.1 ESE 10 13 1016.5 - 0.0 - - - - - - -
30/09:00am 23.2 ESE 9 12 1016.5 - 0.0 - - - - - - -
30/08:30am 22.3 ESE 9 13 1016.6 - 0.0 - - - - - - -
30/08:00am 21.7 E 9 13 1016.5 - 0.0 - - - - - - -
30/07:30am 21.0 E 11 14 1016.4 - 0.0 - - - - - - -
30/07:00am 20.6 ESE 11 14 1016.3 - 0.0 - - - - - - -
30/06:30am 20.6 ESE 11 14 1015.8 - 0.0 - - - - - - -
30/06:00am 20.3 E 12 15 1015.5 - 0.0 - - - - - - -
30/05:30am 19.8 ESE 13 16 1015.0 - 0.0 - - - - - - -
30/05:00am 19.7 E 13 17 1014.9 - 0.0 - - - - - - -
30/04:30am 19.7 ESE 15 18 1014.5 - 0.0 - - - - - - -
30/04:00am 19.7 E 16 20 1014.1 - 0.0 - - - - - - -
30/03:30am 19.7 E 16 20 1013.8 - 0.0 - - - - - - -
30/03:00am 19.7 ESE 16 20 1013.6 - 0.0 - - - - - - -
30/02:30am 19.7 E 16 21 1013.6 - 0.0 - - - - - - -
30/02:00am 19.8 ESE 18 22 1013.7 - 0.0 - - - - - - -
30/01:30am 19.8 ESE 17 22 1013.9 - 0.0 - - - - - - -
30/01:00am 19.8 ESE 17 20 1014.1 - 0.0 - - - - - - -
30/12:30am 19.9 ESE 16 20 1014.3 - 0.0 - - - - - - -
30/12:00am 19.9 E 16 22 1014.6 - 0.0 - - - - - - -
 
Date/Time
WST
Temp

°C
Wind Pressure Rain
since 9am
mm
Weather Cloud Vis
km
Sea
Height
m
Swell
Dir
 
Speed
knots
Gust
knots
hPa Trend Height
m
Period
s
Dir
29/11:30pm 19.9 ESE 16 20 1014.7 - 0.0 - - - - - - -
29/11:00pm 20.1 ESE 17 20 1014.8 - 0.0 - - - - - - -
29/10:30pm 20.0 ESE 18 21 1014.7 - 0.0 - - - - - - -
29/10:00pm 20.0 ESE 18 21 1014.6 - 0.0 - - - - - - -
29/09:30pm 20.1 E 17 20 1014.8 - 0.0 - - - - - - -
29/09:00pm 20.3 E 18 21 1014.8 - 0.0 - - - - - - -
29/08:30pm 20.2 E 19 23 1014.7 - 0.0 - - - - - - -
29/08:00pm 20.2 E 19 23 1014.5 - 0.0 - - - - - - -
29/07:30pm 20.5 ESE 19 23 1014.4 - 0.0 - - - - - - -
29/07:00pm 20.4 E 20 23 1014.2 - 0.0 - - - - - - -
29/06:30pm 20.6 E 19 23 1014.0 - 0.0 - - - - - - -
29/06:00pm 20.7 E 20 24 1013.7 - 0.0 - - - - - - -
29/05:30pm 21.0 E 19 23 1013.7 - 0.0 - - - - - - -
29/05:00pm 21.3 E 19 22 1013.5 - 0.0 - - - - - - -
29/04:30pm 21.6 E 19 23 1013.5 - 0.0 - - - - - - -
29/04:00pm 22.0 E 19 22 1013.6 - 0.0 - - - - - - -
29/03:30pm 22.2 E 18 21 1013.7 - 0.0 - - - - - - -
29/03:00pm 22.6 E 18 21 1013.8 - 0.0 - - - - - - -
29/02:30pm 22.9 E 18 21 1014.1 - 0.0 - - - - - - -
29/02:00pm 22.7 E 19 22 1014.3 - 0.0 - - - - - - -
29/01:30pm 22.9 E 19 22 1014.5 - 0.0 - - - - - - -
29/01:00pm 22.7 E 19 22 1014.7 - 0.0 - - - - - - -
29/12:30pm 22.9 E 19 22 1015.0 - 0.0 - - - - - - -
29/12:00pm 22.3 E 18 21 1015.2 - 0.0 - - - - - - -
29/11:30am 22.7 E 18 21 1015.3 - 0.0 - - - - - - -
29/11:00am 23.0 E 19 21 1015.5 - 0.0 - - - - - - -
29/10:30am 22.4 E 17 21 1015.8 - 0.0 - - - - - - -
29/10:00am 22.3 E 17 20 1016.0 - 0.0 - - - - - - -
29/09:30am 22.2 E 18 20 1016.2 - 0.0 - - - - - - -
29/09:00am 22.3 E 18 20 1016.1 - 0.0 - - - - - - -
29/08:30am 22.1 E 16 20 1016.3 - 0.0 - - - - - - -
29/08:00am 21.7 E 15 19 1016.3 - 0.0 - - - - - - -
29/07:30am 21.0 E 16 19 1016.3 - 0.0 - - - - - - -
29/07:00am 20.8 E 16 19 1016.1 - 0.0 - - - - - - -
29/06:30am 20.7 E 16 19 1016.0 - 0.0 - - - - - - -
29/06:00am 19.8 E 16 19 1015.6 - 0.0 - - - - - - -
29/05:30am 19.5 E 16 19 1015.3 - 0.0 - - - - - - -
29/05:00am 19.2 E 16 20 1014.8 - 0.0 - - - - - - -
29/04:30am 19.3 E 17 21 1014.5 - 0.0 - - - - - - -
29/04:00am 19.0 E 19 22 1014.1 - 0.0 - - - - - - -
29/03:30am 19.1 E 18 22 1014.1 - 0.0 - - - - - - -
29/03:00am 19.2 E 20 24 1013.6 - 0.0 - - - - - - -
29/02:30am 19.2 E 20 24 1013.9 - 0.0 - - - - - - -
29/02:00am 19.1 E 21 25 1014.1 - 0.0 - - - - - - -
29/01:30am 19.4 E 20 24 1014.5 - 0.0 - - - - - - -
29/01:00am 19.4 E 19 23 1014.8 - 0.0 - - - - - - -
29/12:30am 19.4 E 20 24 1015.0 - 0.0 - - - - - - -
29/12:00am 19.4 E 20 25 1015.1 - 0.0 - - - - - - -
 
Date/Time
WST
Temp

°C
Wind Pressure Rain
since 9am
mm
Weather Cloud Vis
km
Sea
Height
m
Swell
Dir
 
Speed
knots
Gust
knots
hPa Trend Height
m
Period
s
Dir
28/11:30pm 19.4 E 21 24 1015.5 - 0.0 - - - - - - -
28/11:00pm 19.5 E 22 26 1015.6 - 0.0 - - - - - - -

Other Formats:

Comma delimited format used in spreadsheet applications
http://www.bom.gov.au/fwo/IDW60701/IDW60701.94644.axf

JavaScript Object Notation format (JSON) in row-major order
http://www.bom.gov.au/fwo/IDW60701/IDW60701.94644.json